Regional Weather Roundup
Issued by NWS State College, PA

Home | Current Version | Previous Version | Graphics & Text | Print | Product List | Glossary Off
Versions: 1 2 3 4 5 6 7 8 9 10 11 12 13 14 15 16 17 18 19 20 21 22 23 24 25 26 27 28 29 30 31 32 33 34 35 36 37 38 39 40 41 42 43 44 45 46 47 48 49 50

000
ASUS41 KCTP 271310
RWRCTP

REGIONAL WEATHER ROUNDUP
NATIONAL WEATHER SERVICE STATE COLLEGE PA
900 AM EDT TUE SEP 27 2016

Note: "fair" indicates few or no clouds below 12,000 feet with no
significant weather and/or obstructions to visibility.

* = STATION THAT DOES NOT REPORT PRECIPITATION /E.G. RAIN...SNOW...ETC/
    THUNDER OR FOG.

PAZ002>004-007>009-013>016-020>023-029>032-271400-
WESTERN PENNSYLVANIA

CITY           SKY/WX    TMP DP  RH WIND       PRES   REMARKS
ERIE           SUNNY     57  46  66 S13       29.86F
MEADVILLE      SUNNY     51  46  83 S6        29.91F
FRANKLIN*        N/A     52  46  82 SW8       29.94F
NEW CASTLE     FAIR      53  50  89 VRB5      29.95F
BEAVER COUNTY  SUNNY     54  50  87 S8        29.96F
BUTLER*        SUNNY     54  48  82 SW7       29.99S
PITTSBURGH INT SUNNY     55  51  86 SW9       29.97S
PITTSBURGH     SUNNY     55  49  80 SW12      29.98R
INDIANA*       MOSUNNY   55  54  94 SW8       30.01S
LATROBE        MOSUNNY   55  55 100 SW9       30.00S
WASHINGTON CO* SUNNY     54  50  87 SW7       30.00R
$$

PAZ004>006-010>012-017>019-024>028-033>037-041-042-045-046-049>053-271400-
CENTRAL PENNSYLVANIA

CITY           SKY/WX    TMP DP  RH WIND       PRES   REMARKS
BRADFORD       CLOUDY    50  49  96 SW9       29.94F
DUBOIS         SUNNY     53  49  86 SW12      29.95S
CLEARFIELD     PTSUNNY   52  52 100 S5        29.97S FOG
JOHNSTOWN      SUNNY     53  49  86 SW9       29.99S
ALTOONA        SUNNY     56  50  80 S9        29.99R
STATE COLLEGE  SUNNY     55  52  88 SW3       29.97S
WILLIAMSPORT   MOSUNNY   59  56  89 NW5       29.96R
SELINSGROVE    FOG       55  55 100 CALM      29.98R VSB 1/4
FT INDIANTOWN  PTSUNNY   58  58 100 W2        29.97R
CAPITAL CITY   MOSUNNY   63  59  87 W3        29.98R
HARRISBURG     SUNNY     64  60  87 NW5       29.97R
YORK           MOSUNNY   61  60  97 W5        29.98R
$$

PAZ038>040-043-044-047-048-054-055-060>062-067>071-271400-
EASTERN PENNSYLVANIA

CITY           SKY/WX    TMP DP  RH WIND       PRES   REMARKS
SCRANTON       CLOUDY    59  57  93 SW3       29.95R
MOUNT POCONO   CLOUDY    55  53  93 NW6       29.96R
ALLENTOWN      MOSUNNY   61  58  90 CALM      29.95R FOG
QUAKERTOWN*    CLOUDY    59  59 100 CALM      29.97R
READING        PTSUNNY   61  58  90 W6        29.96R
LANCASTER      PTSUNNY   62  62 100 W5        29.97R FOG
COATESVILLE    PTSUNNY   63  59  88 W7        29.99R
POTTSTOWN      PTSUNNY   61  60  97 CALM      29.98R FOG
BLUE BELL      CLOUDY    63  61  94 CALM      29.96R
DOYLESTOWN     CLOUDY    65  62  90 SW3       29.96R
WILLOW GROVE   NOT AVBL
NORTH PHILA    CLOUDY    66  62  87 W6        29.97R
PHILADELPHIA   CLOUDY    67  61  81 W6        29.96R
$$




USA.gov is the U.S. government's official web portal to all federal, state and local government web resources and services.